Tracking 19149 objects as of 21-Apr-2018
HD Live streaming from Space Station
objects crossing your sky now

FENGYUN 1C DEB

Track FENGYUN 1C DEB now!
10-day predictions


NORAD ID: 31190
Int'l Code: 1999-025BJU
Perigee: 850.3 km
Apogee: 961.0 km
Inclination: 99.1 °
Period: 103.0 minutes
Semi major axis: 7276 km
RCS: 0.0055 m2 (small)
Launch date: May 10, 1999
Source: People's Republic of China (PRC)
Launch site: Taiyaun Space Center, China (TSC)

Note: This is SATELLITE DEBRIS
aabbcc
Your satellite tracking list
Your tracking list is empty




NASA's NSSDC Master Catalog

Two Line Element Set (TLE):
1 31190U 99025BJU 18110.31011026  .00000561  00000-0  41073-3 0  9994
2 31190  99.0904 145.2614 0076024  75.6295 285.3293 13.98638606565089
Source of the keplerian elements: AFSPC